| time (UTC) | temp F | wind direction | speed knots | gust knots | rain 1hr in | rain 24hr in | rain mn in | humidity % | barometer mb |
| 20260906003918 | 87 | 22 | 5.2 | 6.1 | 0.00 | 0.00 | 0.00 | 70 | |
| 20260906003413 | 87 | 47 | 3.5 | 7.0 | 0.00 | 0.00 | 0.00 | 70 | |
| 20260906002908 | 87 | 43 | 4.3 | 5.2 | 0.00 | 0.00 | 0.00 | 69 | |
| 20260906002408 | 88 | 71 | 4.3 | 6.1 | 0.00 | 0.00 | 0.00 | 69 | |
| 20260906001903 | 88 | 40 | 2.6 | 5.2 | 0.00 | 0.00 | 0.00 | 68 | |
| 20260906001359 | 88 | 41 | 4.3 | 7.0 | 0.00 | 0.00 | 0.00 | 67 | |
| 20260906000900 | 89 | 38 | 3.5 | 7.0 | 0.00 | 0.00 | 0.00 | 66 | |
| 20260906000359 | 89 | 22 | 6.1 | 7.8 | 0.00 | 0.00 | 0.00 | 65 | |
| 20260905235854 | 89 | 16 | 6.1 | 7.8 | 0.00 | 0.00 | 0.00 | 64 | |
| 20260905235349 | 90 | 22 | 7.8 | 8.7 | 0.00 | 0.00 | 0.00 | 63 | |
| 20260905234844 | 90 | 13 | 7.8 | 8.7 | 0.00 | 0.00 | 0.00 | 62 | |
| 20260905234339 | 91 | 6 | 6.1 | 7.8 | 0.00 | 0.00 | 0.00 | 61 | |
| 20260905233834 | 91 | 12 | 6.1 | 7.8 | 0.00 | 0.00 | 0.00 | 59 | |
| 20260905233329 | 91 | 2 | 7.8 | 8.7 | 0.00 | 0.00 | 0.00 | 59 | |
| 20260905232828 | 92 | 2 | 7.8 | 9.6 | 0.00 | 0.00 | 0.00 | 58 | |
| 20260905232325 | 92 | 3 | 9.6 | 11.3 | 0.00 | 0.00 | 0.00 | 57 | |
| 20260905231820 | 92 | 345 | 9.6 | 11.3 | 0.00 | 0.00 | 0.00 | 58 | |
| 20260905231315 | 92 | 345 | 9.6 | 12.2 | 0.00 | 0.00 | 0.00 | 57 | |
| 20260905230811 | 93 | 2 | 10.4 | 13.9 | 0.00 | 0.00 | 0.00 | 56 | |
| 20260905230309 | 93 | 341 | 11.3 | 13.0 | 0.00 | 0.00 | 0.00 | 56 | |
| 20260905225809 | 93 | 2 | 7.0 | 9.6 | 0.00 | 0.00 | 0.00 | 56 | |
| 20260905225306 | 93 | 349 | 11.3 | 13.0 | 0.00 | 0.00 | 0.00 | 55 | |
| 20260905224803 | 93 | 340 | 9.6 | 11.3 | 0.00 | 0.00 | 0.00 | 55 | |
| 20260905224259 | 93 | 1 | 11.3 | 13.0 | 0.00 | 0.00 | 0.00 | 55 | |
| 20260905223755 | 93 | 23 | 11.3 | 13.0 | 0.00 | 0.00 | 0.00 | 56 | |
| 20260905223252 | 94 | 352 | 10.4 | 13.9 | 0.00 | 0.00 | 0.00 | 54 | |
| 20260905222747 | 94 | 11 | 8.7 | 9.6 | 0.00 | 0.00 | 0.00 | 54 | |
| 20260905222246 | 94 | 17 | 7.8 | 9.6 | 0.00 | 0.00 | 0.00 | 55 | |
| 20260905221742 | 94 | 346 | 7.8 | 9.6 | 0.00 | 0.00 | 0.00 | 54 | |
| 20260905221239 | 94 | 7 | 10.4 | 13.0 | 0.00 | 0.00 | 0.00 | 53 | |
| 20260905220734 | 94 | 24 | 9.6 | 12.2 | 0.00 | 0.00 | 0.00 | 53 | |
| 20260905220230 | 94 | 22 | 11.3 | 14.8 | 0.00 | 0.00 | 0.00 | 52 | |
| 20260905215729 | 94 | 22 | 9.6 | 13.9 | 0.00 | 0.00 | 0.00 | 53 | |
| 20260905215225 | 94 | 28 | 10.4 | 13.0 | 0.00 | 0.00 | 0.00 | 53 | |
| 20260905214721 | 94 | 8 | 10.4 | 13.9 | 0.00 | 0.00 | 0.00 | 53 | |
| 20260905214216 | 94 | 329 | 10.4 | 13.9 | 0.00 | 0.00 | 0.00 | 51 | |
| 20260905213712 | 95 | 353 | 10.4 | 13.9 | 0.00 | 0.00 | 0.00 | 48 | |
| 20260905213208 | 95 | 356 | 9.6 | 12.2 | 0.00 | 0.00 | 0.00 | 47 | |
| 20260905212702 | 95 | 353 | 9.6 | 12.2 | 0.00 | 0.00 | 0.00 | 47 | |
| 20260905212201 | 95 | 342 | 4.3 | 9.6 | 0.00 | 0.00 | 0.00 | 48 | |
| 20260905211656 | 95 | 345 | 7.8 | 8.7 | 0.00 | 0.00 | 0.00 | 48 | |
| 20260905211152 | 95 | 347 | 8.7 | 11.3 | 0.00 | 0.00 | 0.00 | 49 | |
| 20260905210648 | 97 | 337 | 12.2 | 13.0 | 0.00 | 0.00 | 0.00 | 45 | |
| 20260905210148 | 97 | 330 | 3.5 | 6.1 | 0.00 | 0.00 | 0.00 | 44 | |
| 20260905205648 | 97 | 354 | 8.7 | 8.7 | 0.00 | 0.00 | 0.00 | 44 | |
| 20260905205147 | 97 | 16 | 5.2 | 7.8 | 0.00 | 0.00 | 0.00 | 45 | |
| 20260905204646 | 97 | 6 | 6.1 | 9.6 | 0.00 | 0.00 | 0.00 | 43 | |
| 20260905204142 | 97 | 351 | 7.0 | 11.3 | 0.00 | 0.00 | 0.00 | 44 | |
| 20260905203636 | 97 | 312 | 6.1 | 8.7 | 0.00 | 0.00 | 0.00 | 44 | |
| 20260905203132 | 97 | 109 | 4.3 | 9.6 | 0.00 | 0.00 | 0.00 | 46 | |
| 20260905202627 | 97 | 356 | 6.1 | 7.0 | 0.00 | 0.00 | 0.00 | 44 | |
| 20260905202122 | 97 | 331 | 8.7 | 11.3 | 0.00 | 0.00 | 0.00 | 43 | |
| 20260905201618 | 97 | 4 | 7.0 | 8.7 | 0.00 | 0.00 | 0.00 | 44 | |
| 20260905201117 | 97 | 342 | 5.2 | 7.8 | 0.00 | 0.00 | 0.00 | 45 | |
| 20260905200613 | 96 | 330 | 5.2 | 9.6 | 0.00 | 0.00 | 0.00 | 46 | |
| 20260905200109 | 96 | 340 | 10.4 | 12.2 | 0.00 | 0.00 | 0.00 | 45 | |
| 20260905195607 | 98 | 324 | 10.4 | 13.0 | 0.00 | 0.00 | 0.00 | 44 | |
| 20260905195103 | 97 | 328 | 9.6 | 9.6 | 0.00 | 0.00 | 0.00 | 44 | |
| 20260905194602 | 97 | 338 | 7.0 | 12.2 | 0.00 | 0.00 | 0.00 | 44 | |
| 20260905194101 | 97 | 156 | 2.6 | 7.8 | 0.00 | 0.00 | 0.00 | 44 | |
| 20260905193556 | 97 | 223 | 4.3 | 7.0 | 0.00 | 0.00 | 0.00 | 43 | |
| 20260905193052 | 97 | 322 | 9.6 | 9.6 | 0.00 | 0.00 | 0.00 | 43 | |
| 20260905192548 | 97 | 145 | 0.0 | 6.1 | 0.00 | 0.00 | 0.00 | 44 | |
| 20260905192044 | 95 | 348 | 4.3 | 11.3 | 0.00 | 0.00 | 0.00 | 46 | |
| 20260905191542 | 95 | 319 | 6.1 | 7.8 | 0.00 | 0.00 | 0.00 | 47 | |
| 20260905191041 | 96 | 333 | 8.7 | 11.3 | 0.00 | 0.00 | 0.00 | 47 | |
| 20260905190540 | 96 | 354 | 6.1 | 7.8 | 0.00 | 0.00 | 0.00 | 46 | |
| 20260905190039 | 96 | 344 | 7.8 | 13.0 | 0.00 | 0.00 | 0.00 | 46 | |
| 20260905185539 | 98 | 343 | 13.9 | 18.2 | 0.00 | 0.00 | 0.00 | 44 | |
| 20260905185038 | 97 | 359 | 3.5 | 7.0 | 0.00 | 0.00 | 0.00 | 44 | |
| 20260905184539 | 96 | 204 | 5.2 | 8.7 | 0.00 | 0.00 | 0.00 | 44 | |
| 20260905184038 | 96 | 16 | 6.1 | 9.6 | 0.00 | 0.00 | 0.00 | 46 | |
| 20260905183537 | 96 | 281 | 4.3 | 6.1 | 0.00 | 0.00 | 0.00 | 45 | |
| 20260905183033 | 96 | 13 | 6.1 | 13.0 | 0.00 | 0.00 | 0.00 | 45 | |
| 20260905182533 | 96 | 7 | 9.6 | 12.2 | 0.00 | 0.00 | 0.00 | 45 | |
| 20260905182033 | 96 | 28 | 7.8 | 9.6 | 0.00 | 0.00 | 0.00 | 47 | |
| 20260905181528 | 96 | 346 | 9.6 | 9.6 | 0.00 | 0.00 | 0.00 | 47 | |
| 20260905181027 | 95 | 82 | 6.1 | 8.7 | 0.00 | 0.00 | 0.00 | 48 | |
| 20260905180527 | 95 | 348 | 7.8 | 8.7 | 0.00 | 0.00 | 0.00 | 46 | |
| 20260905180022 | 96 | 354 | 8.7 | 11.3 | 0.00 | 0.00 | 0.00 | 47 | |
| 20260905175521 | 95 | 13 | 6.1 | 12.2 | 0.00 | 0.00 | 0.00 | 46 | |
| 20260905175017 | 96 | 349 | 8.7 | 11.3 | 0.00 | 0.00 | 0.00 | 47 | |
| 20260905174513 | 96 | 304 | 7.8 | 9.6 | 0.00 | 0.00 | 0.00 | 48 | |
| 20260905174008 | 96 | 32 | 7.0 | 12.2 | 0.00 | 0.00 | 0.00 | 46 | |
| 20260905173504 | 96 | 320 | 5.2 | 7.0 | 0.00 | 0.00 | 0.00 | 48 | |
| 20260905173000 | 96 | 330 | 7.8 | 9.6 | 0.00 | 0.00 | 0.00 | 46 | |
| 20260905172458 | 96 | 305 | 5.2 | 7.0 | 0.00 | 0.00 | 0.00 | 47 | |
| 20260905171954 | 95 | 323 | 5.2 | 7.0 | 0.00 | 0.00 | 0.00 | 48 | |
| 20260905171450 | 95 | 339 | 7.0 | 7.8 | 0.00 | 0.00 | 0.00 | 47 | |
| 20260905170946 | 95 | 42 | 3.5 | 5.2 | 0.00 | 0.00 | 0.00 | 48 | |
| 20260905170442 | 95 | 4 | 6.1 | 7.0 | 0.00 | 0.00 | 0.00 | 50 | |
| 20260905165941 | 95 | 40 | 7.0 | 8.7 | 0.00 | 0.00 | 0.00 | 51 | |
| 20260905165436 | 94 | 40 | 5.2 | 7.8 | 0.00 | 0.00 | 0.00 | 50 | |
| 20260905164932 | 94 | 10 | 7.0 | 9.6 | 0.00 | 0.00 | 0.00 | 50 | |
| 20260905164426 | 95 | 21 | 5.2 | 8.7 | 0.00 | 0.00 | 0.00 | 48 | |
| 20260905163921 | 94 | 49 | 4.3 | 7.0 | 0.00 | 0.00 | 0.00 | 48 | |
| 20260905163418 | 95 | 346 | 4.3 | 7.8 | 0.00 | 0.00 | 0.00 | 49 | |
| 20260905162914 | 95 | 340 | 7.0 | 7.8 | 0.00 | 0.00 | 0.00 | 49 | |
| 20260905162414 | 95 | 305 | 5.2 | 7.0 | 0.00 | 0.00 | 0.00 | 49 | |
| 20260905161908 | 94 | 263 | 1.7 | 6.1 | 0.00 | 0.00 | 0.00 | 50 | |
| 20260905161403 | 94 | 164 | 0.9 | 5.2 | 0.00 | 0.00 | 0.00 | 51 | |
| 20260905160901 | 94 | 6 | 7.0 | 7.8 | 0.00 | 0.00 | 0.00 | 51 | |
| 20260905160354 | 94 | 11 | 6.1 | 9.6 | 0.00 | 0.00 | 0.00 | 51 | |
| 20260905155849 | 94 | 318 | 4.3 | 5.2 | 0.00 | 0.00 | 0.00 | 51 | |
| 20260905155349 | 94 | 25 | 3.5 | 5.2 | 0.00 | 0.00 | 0.00 | 51 | |
| 20260905154848 | 94 | 354 | 3.5 | 3.5 | 0.00 | 0.00 | 0.00 | 50 | |
| 20260905154344 | 94 | 220 | 1.7 | 2.6 | 0.00 | 0.00 | 0.00 | 51 | |
| 20260905153839 | 93 | 179 | 1.7 | 2.6 | 0.00 | 0.00 | 0.00 | 52 | |
| 20260905153336 | 93 | 102 | 2.6 | 2.6 | 0.00 | 0.00 | 0.00 | 54 | |
| 20260905152835 | 93 | 339 | 3.5 | 5.2 | 0.00 | 0.00 | 0.00 | 53 | |
| 20260905152334 | 93 | 154 | 1.7 | 5.2 | 0.00 | 0.00 | 0.00 | 53 | |
| 20260905151829 | 92 | 194 | 2.6 | 3.5 | 0.00 | 0.00 | 0.00 | 53 | |
| 20260905151325 | 93 | 76 | 1.7 | 3.5 | 0.00 | 0.00 | 0.00 | 53 | |
| 20260905150824 | 92 | 127 | 0.0 | 0.9 | 0.00 | 0.00 | 0.00 | 54 | |
| 20260905150319 | 91 | 172 | 1.7 | 3.5 | 0.00 | 0.00 | 0.00 | 55 | |
| 20260905145817 | 92 | 324 | 3.5 | 6.1 | 0.00 | 0.00 | 0.00 | 53 | |
| 20260905145316 | 91 | 194 | 2.6 | 2.6 | 0.00 | 0.00 | 0.00 | 55 | |
| 20260905144815 | 91 | 139 | 1.7 | 6.1 | 0.00 | 0.00 | 0.00 | 56 | |
| 20260905144311 | 90 | 245 | 2.6 | 6.1 | 0.00 | 0.00 | 0.00 | 56 | |
| 20260905143809 | 91 | 324 | 5.2 | 7.0 | 0.00 | 0.00 | 0.00 | 56 | |
| 20260905143304 | 90 | 334 | 4.3 | 6.1 | 0.00 | 0.00 | 0.00 | 57 | |
| 20260905142803 | 90 | 274 | 3.5 | 3.5 | 0.00 | 0.00 | 0.00 | 56 | |
| 20260905142257 | 90 | 256 | 1.7 | 3.5 | 0.00 | 0.00 | 0.00 | 58 | |
| 20260905141754 | 89 | 141 | 0.9 | 2.6 | 0.00 | 0.00 | 0.00 | 59 | |
| 20260905141249 | 89 | 200 | 2.6 | 5.2 | 0.00 | 0.00 | 0.00 | 58 | |
| 20260905140744 | 89 | 210 | 3.5 | 6.1 | 0.00 | 0.00 | 0.00 | 58 | |
| 20260905140239 | 89 | 149 | 0.9 | 2.6 | 0.00 | 0.00 | 0.00 | 60 | |
| 20260905135737 | 90 | 137 | 1.7 | 5.2 | 0.00 | 0.00 | 0.00 | 59 | |
| 20260905135234 | 89 | 139 | 1.7 | 2.6 | 0.00 | 0.00 | 0.00 | 59 | |
| 20260905134733 | 89 | 137 | 0.0 | 2.6 | 0.00 | 0.00 | 0.00 | 62 | |
| 20260905134232 | 89 | 228 | 3.5 | 5.2 | 0.00 | 0.00 | 0.00 | 59 | |
| 20260905133727 | 89 | 169 | 1.7 | 2.6 | 0.00 | 0.00 | 0.00 | 58 | |
| 20260905133223 | 89 | 136 | 0.0 | 0.9 | 0.00 | 0.00 | 0.00 | 59 | |
| 20260905132721 | 89 | 154 | 0.0 | 1.7 | 0.00 | 0.00 | 0.00 | 59 | |
| 20260905132217 | 88 | 154 | 0.0 | 1.7 | 0.00 | 0.00 | 0.00 | 59 | |
| 20260905131712 | 88 | 137 | 0.9 | 1.7 | 0.00 | 0.00 | 0.00 | 60 | |
| 20260905131208 | 87 | 135 | 0.0 | 0.0 | 0.00 | 0.00 | 0.00 | 63 | |
| 20260905130707 | 86 | 154 | 0.0 | 0.9 | 0.00 | 0.00 | 0.00 | 63 | |
| 20260905130202 | 86 | 149 | 0.0 | 0.9 | 0.00 | 0.00 | 0.00 | 64 | |
| 20260905125702 | 85 | 150 | 0.9 | 0.9 | 0.00 | 0.00 | 0.00 | 64 | |
| 20260905125157 | 85 | 156 | 0.9 | 0.9 | 0.00 | 0.00 | 0.00 | 64 | |
| 20260905124654 | 86 | 149 | 0.9 | 0.9 | 0.00 | 0.00 | 0.00 | 62 | |
| 20260905124149 | 86 | 135 | 0.0 | 0.0 | 0.00 | 0.00 | 0.00 | 61 | |
| 20260905123644 | 85 | 134 | 0.0 | 0.0 | 0.00 | 0.00 | 0.00 | 63 | |
| 20260905123142 | 83 | 139 | 0.0 | 0.0 | 0.00 | 0.00 | 0.00 | 65 | |
| 20260905122641 | 83 | 146 | 0.0 | 0.0 | 0.00 | 0.00 | 0.00 | 66 | |
| 20260905122136 | 83 | 156 | 0.0 | 0.0 | 0.00 | 0.00 | 0.00 | 66 | |
| 20260905121630 | 82 | 178 | 0.0 | 0.0 | 0.00 | 0.00 | 0.00 | 67 | |
| 20260905121126 | 82 | 149 | 0.0 | 0.0 | 0.00 | 0.00 | 0.00 | 68 | |
| 20260905120625 | 81 | 139 | 0.0 | 0.0 | 0.00 | 0.00 | 0.00 | 70 | |
| 20260905120120 | 81 | 147 | 0.0 | 0.0 | 0.00 | 0.00 | 0.00 | 70 | |
| 20260905115619 | 80 | 143 | 0.0 | 0.0 | 0.00 | 0.00 | 0.00 | 72 | |
| 20260905115114 | 80 | 148 | 0.0 | 0.9 | 0.00 | 0.00 | 0.00 | 72 | |
| 20260905114614 | 80 | 154 | 0.9 | 0.9 | 0.00 | 0.00 | 0.00 | 73 | |
| 20260905114113 | 79 | 157 | 0.9 | 0.9 | 0.00 | 0.00 | 0.00 | 74 | |
| 20260905113608 | 79 | 166 | 0.9 | 1.7 | 0.00 | 0.00 | 0.00 | 75 | |
| 20260905113103 | 79 | 155 | 1.7 | 1.7 | 0.00 | 0.00 | 0.00 | 76 | |
| 20260905112558 | 79 | 173 | 1.7 | 2.6 | 0.00 | 0.00 | 0.00 | 76 | |
| 20260905112054 | 78 | 190 | 1.7 | 1.7 | 0.00 | 0.00 | 0.00 | 76 | |
| 20260905111548 | 78 | 203 | 1.7 | 2.6 | 0.00 | 0.00 | 0.00 | 76 | |
| 20260905111048 | 79 | 185 | 1.7 | 2.6 | 0.00 | 0.00 | 0.00 | 76 | |
| 20260905110547 | 79 | 174 | 1.7 | 2.6 | 0.00 | 0.00 | 0.00 | 76 | |
| 20260905110042 | 78 | 199 | 1.7 | 2.6 | 0.00 | 0.00 | 0.00 | 76 | |
| 20260905105542 | 78 | 204 | 2.6 | 2.6 | 0.00 | 0.00 | 0.00 | 76 | |
| 20260905105041 | 78 | 215 | 2.6 | 2.6 | 0.00 | 0.00 | 0.00 | 76 | |
| 20260905104538 | 79 | 190 | 1.7 | 2.6 | 0.00 | 0.00 | 0.00 | 76 | |
| 20260905104037 | 79 | 221 | 2.6 | 3.5 | 0.00 | 0.00 | 0.00 | 76 | |
| 20260905103532 | 79 | 221 | 2.6 | 2.6 | 0.00 | 0.00 | 0.00 | 76 | |
| 20260905103028 | 79 | 191 | 1.7 | 2.6 | 0.00 | 0.00 | 0.00 | 76 | |
| 20260905102524 | 79 | 179 | 2.6 | 2.6 | 0.00 | 0.00 | 0.00 | 76 | |
| 20260905102020 | 79 | 227 | 3.5 | 3.5 | 0.00 | 0.00 | 0.00 | 75 | |
| 20260905101518 | 79 | 231 | 3.5 | 5.2 | 0.00 | 0.00 | 0.00 | 75 | |
| 20260905101017 | 78 | 205 | 3.5 | 5.2 | 0.00 | 0.00 | 0.00 | 76 | |
| 20260905100514 | 78 | 220 | 3.5 | 5.2 | 0.00 | 0.00 | 0.00 | 76 | |
| 20260905100013 | 79 | 232 | 3.5 | 5.2 | 0.00 | 0.00 | 0.00 | 76 | |
| 20260905095508 | 78 | 224 | 4.3 | 6.1 | 0.00 | 0.00 | 0.00 | 76 | |
| 20260905095003 | 78 | 229 | 3.5 | 5.2 | 0.00 | 0.00 | 0.00 | 76 | |
| 20260905094458 | 78 | 245 | 3.5 | 3.5 | 0.00 | 0.00 | 0.00 | 77 | |
| 20260905093956 | 78 | 233 | 3.5 | 3.5 | 0.00 | 0.00 | 0.00 | 77 | |
| 20260905093452 | 78 | 206 | 3.5 | 5.2 | 0.00 | 0.00 | 0.00 | 77 | |
| 20260905092948 | 78 | 220 | 3.5 | 5.2 | 0.00 | 0.00 | 0.00 | 77 | |
| 20260905092444 | 78 | 234 | 3.5 | 3.5 | 0.00 | 0.00 | 0.00 | 78 | |
| 20260905091939 | 78 | 229 | 3.5 | 5.2 | 0.00 | 0.00 | 0.00 | 78 | |
| 20260905091438 | 78 | 236 | 3.5 | 3.5 | 0.00 | 0.00 | 0.00 | 77 | |
| 20260905090938 | 78 | 235 | 2.6 | 3.5 | 0.00 | 0.00 | 0.00 | 78 | |
| 20260905090433 | 77 | 173 | 0.0 | 0.0 | 0.00 | 0.00 | 0.00 | 79 | |
| 20260905085932 | 77 | 134 | 0.0 | 1.7 | 0.00 | 0.00 | 0.00 | 79 | |
| 20260905085432 | 77 | 142 | 0.0 | 0.9 | 0.00 | 0.00 | 0.00 | 79 | |
| 20260905084928 | 77 | 147 | 0.9 | 1.7 | 0.00 | 0.00 | 0.00 | 79 | |
| 20260905084427 | 77 | 171 | 1.7 | 2.6 | 0.00 | 0.00 | 0.00 | 80 | |
| 20260905083922 | 76 | 253 | 1.7 | 2.6 | 0.00 | 0.00 | 0.00 | 80 | |
| 20260905083418 | 76 | 151 | 0.9 | 1.7 | 0.00 | 0.00 | 0.00 | 80 | |
| 20260905082913 | 77 | 81 | 1.7 | 3.5 | 0.00 | 0.00 | 0.00 | 79 | |
| 20260905082410 | 79 | 143 | 0.9 | 1.7 | 0.00 | 0.00 | 0.00 | 75 | |
| 20260905081909 | 80 | 154 | 1.7 | 2.6 | 0.00 | 0.00 | 0.00 | 74 | |
| 20260905081404 | 80 | 273 | 3.5 | 5.2 | 0.00 | 0.00 | 0.00 | 73 | |
| 20260905080903 | 80 | 220 | 3.5 | 5.2 | 0.00 | 0.00 | 0.00 | 73 | |
| 20260905080358 | 80 | 219 | 3.5 | 5.2 | 0.00 | 0.00 | 0.00 | 72 | |
| 20260905075857 | 80 | 211 | 3.5 | 3.5 | 0.00 | 0.00 | 0.00 | 72 | |
| 20260905075357 | 80 | 183 | 1.7 | 2.6 | 0.00 | 0.00 | 0.00 | 73 | |
| 20260905074856 | 80 | 170 | 2.6 | 2.6 | 0.00 | 0.00 | 0.00 | 73 | |
| 20260905074352 | 80 | 209 | 2.6 | 3.5 | 0.00 | 0.00 | 0.00 | 73 | |
| 20260905073847 | 80 | 203 | 3.5 | 5.2 | 0.00 | 0.00 | 0.00 | 72 | |
| 20260905073343 | 81 | 215 | 2.6 | 5.2 | 0.00 | 0.00 | 0.00 | 71 | |
| 20260905072837 | 81 | 200 | 3.5 | 5.2 | 0.00 | 0.00 | 0.00 | 71 | |
| 20260905072332 | 81 | 199 | 3.5 | 3.5 | 0.00 | 0.00 | 0.00 | 70 | |
| 20260905071829 | 81 | 201 | 3.5 | 3.5 | 0.00 | 0.00 | 0.00 | 71 | |
| 20260905071326 | 80 | 206 | 3.5 | 5.2 | 0.00 | 0.00 | 0.00 | 71 | |
| 20260905070825 | 80 | 218 | 3.5 | 5.2 | 0.00 | 0.00 | 0.00 | 72 | |
| 20260905070322 | 80 | 167 | 4.3 | 7.0 | 0.00 | 0.00 | 0.00 | 72 | |
| 20260905065820 | 80 | 203 | 5.2 | 7.0 | 0.00 | 0.00 | 0.00 | 71 | |
| 20260905065319 | 81 | 208 | 4.3 | 6.1 | 0.00 | 0.00 | 0.00 | 71 | |
| 20260905064814 | 81 | 190 | 4.3 | 6.1 | 0.00 | 0.00 | 0.00 | 70 | |
| 20260905064310 | 81 | 211 | 4.3 | 6.1 | 0.00 | 0.00 | 0.00 | 69 | |
| 20260905063808 | 82 | 199 | 3.5 | 6.1 | 0.00 | 0.00 | 0.00 | 68 | |
| 20260905063305 | 82 | 183 | 5.2 | 7.0 | 0.00 | 0.00 | 0.00 | 68 | |
| 20260905062801 | 82 | 209 | 3.5 | 5.2 | 0.00 | 0.00 | 0.00 | 68 | |
| 20260905062300 | 82 | 180 | 3.5 | 3.5 | 0.00 | 0.00 | 0.00 | 68 | |
| 20260905061755 | 82 | 176 | 2.6 | 3.5 | 0.00 | 0.00 | 0.00 | 68 | |
| 20260905061250 | 82 | 209 | 2.6 | 3.5 | 0.00 | 0.00 | 0.00 | 69 | |
| 20260905060749 | 82 | 188 | 2.6 | 3.5 | 0.00 | 0.00 | 0.00 | 68 | |
| 20260905060247 | 81 | 194 | 2.6 | 3.5 | 0.00 | 0.00 | 0.00 | 68 | |
| 20260905055745 | 82 | 168 | 2.6 | 3.5 | 0.00 | 0.00 | 0.00 | 68 | |
| 20260905055240 | 83 | 157 | 3.5 | 3.5 | 0.00 | 0.00 | 0.00 | 66 | |
| 20260905054735 | 83 | 191 | 2.6 | 2.6 | 0.00 | 0.00 | 0.00 | 64 | |
| 20260905054232 | 83 | 164 | 1.7 | 1.7 | 0.00 | 0.00 | 0.00 | 64 | |
| 20260905053731 | 83 | 161 | 0.9 | 1.7 | 0.00 | 0.00 | 0.00 | 64 | |
| 20260905053227 | 82 | 150 | 0.0 | 0.0 | 0.00 | 0.00 | 0.00 | 66 | |
| 20260905052726 | 82 | 142 | 0.0 | 0.0 | 0.00 | 0.00 | 0.00 | 66 | |
| 20260905052221 | 82 | 141 | 0.0 | 0.0 | 0.00 | 0.00 | 0.00 | 67 | |
| 20260905051721 | 82 | 140 | 0.0 | 0.0 | 0.00 | 0.00 | 0.00 | 67 | |
| 20260905051218 | 83 | 132 | 0.0 | 0.0 | 0.00 | 0.00 | 0.00 | 66 | |
| 20260905050714 | 84 | 132 | 0.0 | 0.0 | 0.00 | 0.00 | 0.00 | 64 | |
| 20260905050211 | 84 | 151 | 0.9 | 0.9 | 0.00 | 0.00 | 0.00 | 63 | |
| 20260905045710 | 83 | 167 | 1.7 | 1.7 | 0.00 | 0.00 | 0.00 | 63 | |
| 20260905045206 | 82 | 163 | 1.7 | 1.7 | 0.00 | 0.00 | 0.00 | 65 | |
| 20260905044701 | 82 | 144 | 0.9 | 1.7 | 0.00 | 0.00 | 0.00 | 67 | |
| 20260905044200 | 83 | 153 | 0.9 | 1.7 | 0.00 | 0.00 | 0.00 | 64 | |
| 20260905043659 | 83 | 168 | 1.7 | 1.7 | 0.00 | 0.00 | 0.00 | 64 | |
| 20260905043154 | 83 | 154 | 1.7 | 1.7 | 0.00 | 0.00 | 0.00 | 65 | |
| 20260905042649 | 84 | 143 | 0.0 | 0.9 | 0.00 | 0.00 | 0.00 | 64 | |
| 20260905042148 | 83 | 148 | 0.9 | 1.7 | 0.00 | 0.00 | 0.00 | 64 | |
| 20260905041644 | 83 | 155 | 0.9 | 1.7 | 0.00 | 0.00 | 0.00 | 64 | |
| 20260905041139 | 83 | 166 | 1.7 | 1.7 | 0.00 | 0.00 | 0.00 | 64 | |
| 20260905040634 | 84 | 147 | 0.0 | 0.0 | 0.00 | 0.00 | 0.00 | 64 | |
| 20260905040133 | 84 | 148 | 0.0 | 0.0 | 0.00 | 0.00 | 0.00 | 63 | |
| 20260905035628 | 84 | 154 | 0.9 | 1.7 | 0.00 | 0.00 | 0.00 | 63 | |
| 20260905035125 | 85 | 198 | 2.6 | 2.6 | 0.00 | 0.00 | 0.00 | 62 | |
| 20260905034621 | 84 | 203 | 2.6 | 2.6 | 0.00 | 0.00 | 0.00 | 62 | |
| 20260905034120 | 85 | 155 | 0.9 | 0.9 | 0.00 | 0.00 | 0.00 | 62 | |
| 20260905033619 | 85 | 190 | 1.7 | 2.6 | 0.00 | 0.00 | 0.00 | 61 | |
| 20260905033115 | 84 | 167 | 1.7 | 2.6 | 0.00 | 0.00 | 0.00 | 62 | |
| 20260905032615 | 85 | 180 | 1.7 | 2.6 | 0.00 | 0.00 | 0.00 | 62 | |
| 20260905032115 | 85 | 167 | 2.6 | 2.6 | 0.00 | 0.00 | 0.00 | 61 | |
| 20260905031611 | 85 | 181 | 1.7 | 2.6 | 0.00 | 0.00 | 0.00 | 61 | |
| 20260905031111 | 85 | 159 | 0.9 | 2.6 | 0.00 | 0.00 | 0.00 | 61 | |
| 20260905030606 | 85 | 180 | 1.7 | 2.6 | 0.00 | 0.00 | 0.00 | 61 | |
| 20260905030101 | 85 | 167 | 0.9 | 1.7 | 0.00 | 0.00 | 0.00 | 61 | |
| 20260905025556 | 85 | 157 | 0.9 | 1.7 | 0.00 | 0.00 | 0.00 | 61 | |
| 20260905025052 | 85 | 166 | 1.7 | 2.6 | 0.00 | 0.00 | 0.00 | 61 | |
| 20260905024548 | 86 | 178 | 1.7 | 1.7 | 0.00 | 0.00 | 0.00 | 61 | |
| 20260905024043 | 85 | 175 | 1.7 | 1.7 | 0.00 | 0.00 | 0.00 | 60 | |
| 20260905023538 | 85 | 161 | 1.7 | 1.7 | 0.00 | 0.00 | 0.00 | 61 | |
| 20260905023032 | 85 | 166 | 1.7 | 2.6 | 0.00 | 0.00 | 0.00 | 61 | |
| 20260905022532 | 85 | 174 | 1.7 | 1.7 | 0.00 | 0.00 | 0.00 | 61 | |
| 20260905022027 | 85 | 153 | 0.9 | 1.7 | 0.00 | 0.00 | 0.00 | 61 | |
| 20260905021527 | 85 | 173 | 1.7 | 1.7 | 0.00 | 0.00 | 0.00 | 61 | |
| 20260905021022 | 85 | 182 | 1.7 | 2.6 | 0.00 | 0.00 | 0.00 | 61 | |
| 20260905020522 | 86 | 181 | 1.7 | 2.6 | 0.00 | 0.00 | 0.00 | 60 | |
| 20260905020017 | 86 | 204 | 1.7 | 2.6 | 0.00 | 0.00 | 0.00 | 59 | |
| 20260905015515 | 86 | 209 | 2.6 | 3.5 | 0.00 | 0.00 | 0.00 | 59 | |
| 20260905015010 | 86 | 185 | 1.7 | 2.6 | 0.00 | 0.00 | 0.00 | 59 | |
| 20260905014505 | 87 | 214 | 2.6 | 3.5 | 0.00 | 0.00 | 0.00 | 58 | |
| 20260905014000 | 87 | 213 | 2.6 | 2.6 | 0.00 | 0.00 | 0.00 | 59 | |
| 20260905013456 | 87 | 159 | 2.6 | 3.5 | 0.00 | 0.00 | 0.00 | 58 | |
| 20260905012951 | 87 | 204 | 3.5 | 3.5 | 0.00 | 0.00 | 0.00 | 57 | |
| 20260905012446 | 88 | 195 | 3.5 | 3.5 | 0.00 | 0.00 | 0.00 | 57 | |
| 20260905011942 | 88 | 193 | 2.6 | 3.5 | 0.00 | 0.00 | 0.00 | 56 | |
| 20260905011438 | 88 | 201 | 3.5 | 5.2 | 0.00 | 0.00 | 0.00 | 55 | |
| 20260905010933 | 88 | 173 | 3.5 | 3.5 | 0.00 | 0.00 | 0.00 | 55 | |
| 20260905010428 | 89 | 178 | 2.6 | 3.5 | 0.00 | 0.00 | 0.00 | 55 | |
| 20260905005924 | 89 | 187 | 3.5 | 3.5 | 0.00 | 0.00 | 0.00 | 55 | |
| 20260905005420 | 89 | 187 | 2.6 | 3.5 | 0.00 | 0.00 | 0.00 | 54 | |
| 20260905004920 | 89 | 198 | 3.5 | 3.5 | 0.00 | 0.00 | 0.00 | 54 | |
| 20260905004415 | 89 | 190 | 2.6 | 3.5 | 0.00 | 0.00 | 0.00 | 54 |